Find Globalstar M044

NORAD ID: 25678 Int'l Des: 1999-019 Owner: GLOBT Country: US Constellation: globalstar operational
LEOCIRCULAR

リアルタイム位置

3D地球を読み込み中...

Globalstar M044について

説明を読み込み中...

次回通過

Passes for default location (London). Set your location on the main map for personalized predictions.

高度履歴

Loading altitude history...

軌道要素

1 25678U 99019C 26107.03762943 -.00000084 00000-0 -10007-4 0 9992
2 25678 51.9978 300.3424 0005413 262.7794 271.0468 11.90264886207502
Epoch: Apr 17, 2026 • Age: 16 hours

現在のステータス

高度 1734.2 km
速度 7.01 km/s
衛星直下点 47.42°N, 95.97°W
打ち上げ日 Apr 15, 1999
運用期間 27 years
タイプ communications

技術仕様

分類 Payload
質量 450.00 kg
乾燥質量 380.00 kg
総質量 450.00 kg
長さ 1.50 m
直径 0.60 m
スパン 12.00 m
形状 Box + 2 Pan
製造者 LOR
バスタイプ LS-400
フェーズステータス In Orbit
所有者/国 GLOBT/US

Most Searched